• Join FlightAware (Why Join?)
  • Login
  • US Flag GB Flag 
17:46 EST


 

Airport Tracker/Info


-or-


 

Live Flight TrackerFlight Track Log ✈ CTL309 ✈ 19-Apr-2013 ✈ KOSU - KHAO

Flight Track Log - Related Links

Times and Time Zones

All times are in EDT time to prevent confusion due to time zone crossing. See the CTL309 flight status page for this flight to view local times or setup timezone preferences in your user account.

Time Position Orientation Groundspeed Altitude Reporting Facility
EDT Latitude Longitude Course Direction KTS MPH feet Rate Location/Type
03:46 40.0811 -83.1072 240° Southwest 146 168 1,800  Level Indianapolis Center
03:47 40.0686 -83.1356 240° Southwest 117 135 2,900 1,140 Climbing Indianapolis Center
03:48 40.0608 -83.1519 238° Southwest 125 144 3,300 660 Climbing Indianapolis Center
03:48 40.0517 -83.1692 235° Southwest 111 128 3,600 480 Climbing Indianapolis Center
03:49 40.0442 -83.1850 238° Southwest 114 131 3,800 480 Climbing Indianapolis Center
03:49 40.0347 -83.2053 239° Southwest 116 133 4,100 360 Climbing Indianapolis Center
03:50 40.0267 -83.2206 235° Southwest 114 131 4,200 60 Climbing Indianapolis Center
03:50 40.0153 -83.2411 234° Southwest 121 139 4,200 -120 Level Indianapolis Center
03:51 40.0086 -83.2583 243° Southwest 118 136 4,100  Descending Indianapolis Center
03:51 39.9981 -83.2797 237° Southwest 124 143 4,200 60 Climbing Indianapolis Center
03:52 39.9900 -83.2969 239° Southwest 121 139 4,200 -120 Level Indianapolis Center
03:52 39.9786 -83.3156 231° Southwest 122 140 4,100  Descending Indianapolis Center
03:53 39.9717 -83.3336 243° Southwest 122 140 4,200 -120 Climbing Indianapolis Center
03:53 39.9614 -83.3544 237° Southwest 122 140 4,000  Descending Indianapolis Center
03:54 39.9536 -83.3714 239° Southwest 122 140 4,200 60 Climbing Indianapolis Center
03:54 39.9439 -83.3931 240° Southwest 121 139 4,100 -120 Descending Indianapolis Center
03:55 39.9356 -83.4078 234° Southwest 120 138 4,100  Level Indianapolis Center
03:55 39.9244 -83.4289 236° Southwest 122 140 4,100 60 Level Indianapolis Center
03:56 39.9169 -83.4453 239° Southwest 121 139 4,200 -120 Climbing Indianapolis Center
03:56 39.9072 -83.4647 237° Southwest 121 139 4,000 -120 Descending Indianapolis Center
03:57 39.8989 -83.4817 237° Southwest 121 139 4,100  Climbing Indianapolis Center
03:57 39.8878 -83.5031 236° Southwest 121 139 4,000 -120 Descending Indianapolis Center
03:58 39.8808 -83.5183 239° Southwest 121 139 4,000 60 Level Indianapolis Center
03:58 39.8703 -83.5417 239° Southwest 120 138 4,100 60 Climbing Indianapolis Center
03:59 39.8628 -83.5550 234° Southwest 121 139 4,100  Level Indianapolis Center
03:59 39.8508 -83.5775 235° Southwest 118 136 4,100  Level Indianapolis Center
04:00 39.8447 -83.5903 238° Southwest 119 137 4,100 -120 Level Indianapolis Center
04:00 39.8339 -83.6106 235° Southwest 114 131 4,000  Descending Indianapolis Center
04:01 39.8286 -83.6239 243° Southwest 115 132 4,100 60 Climbing Indianapolis Center
04:01 39.8192 -83.6386 230° Southwest 111 128 4,100 -120 Level Indianapolis Center
04:02 39.8142 -83.6525 245° Southwest 104 120 4,000  Descending Indianapolis Center
04:02 39.8042 -83.6694 232° Southwest 97 112 4,100  Climbing Indianapolis Center
04:03 39.7997 -83.6806 242° Southwest 97 112 4,000  Descending Indianapolis Center
04:03 39.7897 -83.6975 232° Southwest 95 109 4,100 60 Climbing Indianapolis Center
04:04 39.7850 -83.7100 244° Southwest 95 109 4,100 -120 Level Indianapolis Center
04:04 39.7769 -83.7286 241° Southwest 96 110 4,000  Descending Indianapolis Center
04:05 39.7703 -83.7394 231° Southwest 96 110 4,100  Climbing Indianapolis Center
04:05 39.7622 -83.7564 238° Southwest 95 109 4,000 -120 Descending Indianapolis Center
04:06 39.7553 -83.7686 234° Southwest 96 110 4,000 60 Level Indianapolis Center
04:06 39.7475 -83.7844 237° Southwest 96 110 4,100 60 Climbing Indianapolis Center
04:07 39.7406 -83.7964 233° Southwest 95 109 4,100  Level Indianapolis Center
04:07 39.7328 -83.8125 238° Southwest 95 109 4,100 -120 Level Indianapolis Center
04:08 39.7256 -83.8261 235° Southwest 96 110 4,000 -120 Descending Indianapolis Center
04:09 39.7111 -83.8583 240° Southwest 99 114 4,000  Level Indianapolis Center
04:10 39.6969 -83.8878 238° Southwest 97 112 4,100  Climbing Indianapolis Center
04:11 39.6825 -83.9164 237° Southwest 96 110 4,100 -60 Level Indianapolis Center
04:12 39.6678 -83.9428 234° Southwest 92 106 4,000 -60 Descending Indianapolis Center
04:13 39.6533 -83.9706 236° Southwest 91 105 4,000  Level Indianapolis Center
04:14 39.6381 -84.0003 236° Southwest 95 109 4,000  Level Indianapolis Center
04:15 39.6231 -84.0289 236° Southwest 96 110 4,000  Level Indianapolis Center
04:16 39.6078 -84.0578 236° Southwest 96 110 4,000  Level Indianapolis Center
04:17 39.5911 -84.0861 233° Southwest 97 112 4,000  Level Indianapolis Center
04:18 39.5753 -84.1144 234° Southwest 97 112 4,000  Level Indianapolis Center
04:19 39.5614 -84.1386 233° Southwest 98 113 4,100  Climbing Indianapolis Center
04:20 39.5461 -84.1675 236° Southwest 98 113 4,000 -300 Descending Indianapolis Center
04:21 39.5292 -84.1975 234° Southwest 99 114 3,500 -540 Descending Indianapolis Center
04:22 39.5108 -84.2344 237° Southwest 111 128 3,000 -300 Descending Indianapolis Center
04:23 39.4931 -84.2683 236° Southwest 114 131 3,000  Level Indianapolis Center
04:24 39.4767 -84.2992 235° Southwest 108 124 3,100  Climbing Indianapolis Center
04:25 39.4608 -84.3325 238° Southwest 107 123 3,000 -60 Descending Indianapolis Center
04:26 39.4456 -84.3664 240° Southwest 108 124 3,000 -360 Level Indianapolis Center
04:27 39.4311 -84.3986 240° Southwest 108 124 2,300 -720 Descending Indianapolis Center
04:29 39.4086 -84.4307 228° Southwest  Level FlightAware Approximate
04:36 39.3500 -84.5167 229° Southwest  Level FlightAware Approximate
04:37 39.3638 -84.5219 229° Southwest  Level Estimated
04:38 39.3638 -84.5219 229° Southwest  Level Estimated